Location: Newark
(46.1292°N, 1.0086°W)
Time: 06:21:50
(UTC+00:00)

Vanguard 3 - Pass Details

Date: 20 November 2019
Orbit: 507 x 3263 km, 33.3° (Epoch: 05 December)

Event Time Altitude Azimuth Distance (km) Brightness Sun altitude
Rises 11:04:02 0° 196° (SSW) 6,368 12.7 23.4°
Reaches altitude 10° 11:09:19 10° 183° (S) 5,701 13.2 23.6°
Maximum altitude 11:22:10 24° 138° (SE) 5,055 12.4 23.9°
Drops below altitude 10° 11:35:40 10° 95° (E) 6,061 11.8 24.1°
Sets 11:41:25 0° 83° (E) 6,851 11.8 24.2°
